WIF1356 ENTC-ENVA

Flight info

Callsign WIF1356
Flight time N/A
Altitude 24000
Route AMIMO DCT NUPGO
Aircraft DH8D/M-SDE2E3FGRY/H

Departure

Time 2026-04-29 16:08
Airport Tromsø Airport (ENTC)

Arrival

Time N/A
Airport Trondheim Airport, Værnes (ENVA)
Time Latitude Longitude Altitude Speed Heading
2026-04-29 15:35 69.68085 18.91015 2 ft 0 kts 283°
2026-04-29 15:56 69.68085 18.91014 2 ft 0 kts 283°
2026-04-29 15:57 69.68084 18.91028 2 ft 2 kts 284°
2026-04-29 15:57 69.68080 18.91069 2 ft 2 kts 284°
2026-04-29 15:57 69.68077 18.91111 2 ft 2 kts 284°
2026-04-29 15:57 69.68073 18.91154 2 ft 2 kts 284°
2026-04-29 15:58 69.68070 18.91195 2 ft 2 kts 284°
2026-04-29 15:58 69.68066 18.91237 2 ft 2 kts 284°
2026-04-29 15:58 69.68061 18.91273 3 ft 1 kts 309°
2026-04-29 15:58 69.68050 18.91297 3 ft 1 kts 338°
2026-04-29 15:59 69.68037 18.91303 3 ft 1 kts
2026-04-29 15:59 69.68032 18.91300 3 ft 0 kts 13°
2026-04-29 16:02 69.68052 18.91314 3 ft 10 kts 14°
2026-04-29 16:03 69.68173 18.91396 2 ft 25 kts 14°
2026-04-29 16:03 69.68366 18.91501 0 ft 27 kts
2026-04-29 16:03 69.68548 18.91568 -1 ft 26 kts 14°
2026-04-29 16:03 69.68722 18.91684 -3 ft 19 kts 12°
2026-04-29 16:04 69.68775 18.91855 -3 ft 10 kts 106°
2026-04-29 16:04 69.68773 18.91876 -3 ft 0 kts 107°
2026-04-29 16:05 69.68773 18.91878 -3 ft 1 kts 107°
2026-04-29 16:06 69.68764 18.91977 -2 ft 8 kts 104°
2026-04-29 16:06 69.68774 18.92165 -2 ft 6 kts 102°
2026-04-29 16:06 69.68752 18.92180 -2 ft 0 kts 195°
2026-04-29 16:07 69.68661 18.92109 -1 ft 33 kts 194°
2026-04-29 16:07 69.68182 18.91785 3 ft 109 kts 192°
2026-04-29 16:07 69.67265 18.91142 80 ft 154 kts 196°
2026-04-29 16:07 69.66244 18.90019 543 ft 168 kts 204°
2026-04-29 16:08 69.65077 18.88771 926 ft 189 kts 197°
2026-04-29 16:08 69.63860 18.88047 1954 ft 177 kts 194°
2026-04-29 16:08 69.62691 18.87367 2632 ft 177 kts 197°
2026-04-29 16:08 69.61477 18.86622 3185 ft 181 kts 199°
2026-04-29 16:09 69.60250 18.85866 3838 ft 181 kts 200°
2026-04-29 16:09 69.59039 18.85112 4435 ft 183 kts 200°
2026-04-29 16:09 69.57790 18.84272 4989 ft 186 kts 204°
2026-04-29 16:09 69.56609 18.82822 5553 ft 186 kts 215°
2026-04-29 16:10 69.55482 18.81127 6169 ft 187 kts 217°
2026-04-29 16:10 69.54330 18.79394 6758 ft 189 kts 217°
2026-04-29 16:10 69.53172 18.77655 7307 ft 192 kts 217°
2026-04-29 16:10 69.51996 18.75890 7805 ft 197 kts 217°
2026-04-29 16:11 69.50788 18.74088 8386 ft 199 kts 217°
2026-04-29 16:11 69.49551 18.72242 8914 ft 204 kts 217°
2026-04-29 16:11 69.48286 18.70362 9471 ft 207 kts 218°
2026-04-29 16:11 69.47008 18.68473 10029 ft 211 kts 218°
2026-04-29 16:12 69.45702 18.66532 10496 ft 217 kts 218°
2026-04-29 16:12 69.44801 18.65188 10761 ft 224 kts 216°
2026-04-29 16:12 69.42934 18.62419 11368 ft 232 kts 217°
2026-04-29 16:12 69.41489 18.60311 11872 ft 237 kts 217°
2026-04-29 16:13 69.40031 18.58175 12462 ft 237 kts 217°
2026-04-29 16:13 69.38568 18.56030 12969 ft 241 kts 217°
2026-04-29 16:13 69.37075 18.53855 13515 ft 244 kts 217°
2026-04-29 16:13 69.35586 18.51674 14030 ft 245 kts 217°
2026-04-29 16:14 69.34066 18.49454 14596 ft 248 kts 217°
2026-04-29 16:14 69.32523 18.47230 15072 ft 253 kts 216°
2026-04-29 16:14 69.30930 18.45204 15554 ft 257 kts 213°
2026-04-29 16:14 69.29289 18.43204 16028 ft 260 kts 214°
2026-04-29 16:15 69.27636 18.41186 16536 ft 261 kts 214°
2026-04-29 16:15 69.25977 18.39154 17001 ft 263 kts 214°
2026-04-29 16:15 69.24283 18.37075 17429 ft 267 kts 214°
2026-04-29 16:15 69.22591 18.35003 17887 ft 268 kts 214°
2026-04-29 16:16 69.20879 18.32901 18247 ft 272 kts 214°
2026-04-29 16:16 69.19154 18.30784 18639 ft 274 kts 214°
2026-04-29 16:16 69.17408 18.28649 19061 ft 275 kts 214°
2026-04-29 16:16 69.15678 18.26537 19498 ft 275 kts 214°
2026-04-29 16:17 69.13925 18.24398 19886 ft 276 kts 214°
2026-04-29 16:17 69.12165 18.22275 20256 ft 279 kts 213°
2026-04-29 16:17 69.10369 18.20219 20657 ft 279 kts 212°
2026-04-29 16:17 69.08583 18.18181 20967 ft 282 kts 212°
2026-04-29 16:18 69.06784 18.16084 21308 ft 281 kts 213°
2026-04-29 16:18 69.04978 18.13969 21659 ft 281 kts 213°
2026-04-29 16:18 69.03194 18.11857 21954 ft 282 kts 213°
2026-04-29 16:18 69.01379 18.09699 22218 ft 285 kts 213°
2026-04-29 16:19 68.99584 18.07563 22550 ft 283 kts 214°
2026-04-29 16:19 68.97774 18.05405 22837 ft 284 kts 214°
2026-04-29 16:19 68.95953 18.03220 22970 ft 289 kts 214°
2026-04-29 16:19 68.94139 18.01056 23343 ft 285 kts 214°
2026-04-29 16:20 68.92304 17.98867 23513 ft 289 kts 215°
2026-04-29 16:20 68.90469 17.96677 23773 ft 289 kts 214°
2026-04-29 16:20 68.88672 17.94268 23930 ft 287 kts 220°
2026-04-29 16:20 68.86916 17.91539 23975 ft 292 kts 220°
2026-04-29 16:21 68.85124 17.88720 24001 ft 299 kts 221°
2026-04-29 16:21 68.83299 17.85861 23995 ft 306 kts 220°
2026-04-29 16:21 68.81497 17.83055 24015 ft 312 kts 220°
2026-04-29 16:21 68.80306 17.81207 24005 ft 314 kts 220°